Location: Unspecified
(51.0950°N, 12.9690°E)
Time: 23:12:39
(UTC+00:00)

FO-29 - Visible Passes

Search period start: 23 April 2024 00:00
Search period end: 03 May 2024 00:00
Orbit: 800 x 1320 km, 98.6° (Epoch: 23 April)

Date Brightness Start Highest point End Pass type
(mag) Time Alt. Az. Time Alt. Az. Time Alt. Az.
23 Apr 10.1 01:20:13 10° NNE 01:27:48 89° ESE 01:32:54 25° SSW visible
23 Apr 11.2 03:06:01 10° N 03:12:02 28° NW 03:18:21 10° WSW visible
23 Apr 12.3 22:45:24 10° ENE 22:45:41 10° ENE 22:45:59 10° ENE visible
24 Apr 10.8 00:25:14 10° NNE 00:32:32 47° E 00:37:11 23° SSE visible
24 Apr 10.4 02:10:22 10° N 02:17:35 51° WNW 02:23:40 16° SW visible
24 Apr 11.7 23:30:56 10° NE 23:36:46 23° E 23:41:28 14° SE visible
25 Apr 10.1 01:15:03 10° NNE 01:22:42 86° ESE 01:27:57 24° SSW visible
25 Apr 11.1 03:00:46 10° N 03:07:00 29° NW 03:13:28 10° WSW visible
26 Apr 10.8 00:20:06 10° NNE 00:27:24 44° E 00:32:13 22° SSE visible
26 Apr 10.4 02:05:10 10° N 02:12:31 54° WNW 02:18:42 16° SW visible
26 Apr 11.8 23:25:54 10° NE 23:31:36 22° E 23:36:29 13° SE visible
27 Apr 10.1 01:09:53 10° NNE 01:17:37 82° ESE 01:22:58 23° S visible
27 Apr 11.1 02:55:33 10° N 03:01:57 31° NW 03:08:33 10° WSW visible
28 Apr 10.9 00:14:58 10° NNE 00:22:17 42° E 00:27:14 21° SSE visible
28 Apr 10.4 01:59:59 10° N 02:07:27 57° WNW 02:13:43 16° SW visible
28 Apr 11.8 23:20:53 10° NE 23:26:24 21° E 23:31:30 11° SE visible
29 Apr 10.2 01:04:44 10° NNE 01:12:31 78° ESE 01:17:59 23° S visible
29 Apr 11.1 02:50:21 10° N 02:56:54 32° NW 03:03:38 10° WSW visible
30 Apr 11.0 00:09:53 10° NNE 00:17:08 40° E 00:22:14 19° SSE visible
30 Apr 10.3 01:54:48 10° N 02:02:23 60° WNW 02:08:43 16° SW visible
30 Apr 11.9 23:15:53 10° NE 23:21:13 19° E 23:26:29 10° SE visible
01 May 10.2 00:59:35 10° NNE 01:07:26 75° ESE 01:12:58 22° S visible
01 May 11.0 02:45:08 10° N 02:51:52 34° WNW 02:58:41 10° WSW visible
02 May 11.1 00:04:47 10° NNE 00:11:59 38° E 00:17:13 18° SSE visible
02 May 10.3 01:49:39 10° N 01:57:20 63° WNW 02:03:41 16° SW visible
02 May 11.9 23:10:55 10° NE 23:16:01 18° E 23:21:04 10° ESE visible
